Flag for Canada Weather past 2 weeks in Arctic Bay, Nunavut Territory, Canada

Now
39 °F

Partly sunny.


Feels Like: 32 °F
Forecast: 50 / 56 °F
Wind: 12 mph from West

Location: Pond Inlet

Current Time: Aug 20, 2014 at 4:13:09 PM

Latest Report: Aug 20, 2014 at 3:00 PM


Visibility: 20 mi

Pressure: 30.05 "Hg

Humidity: 81%

Dew point: 34 °F

Location of Arctic BayLocation

Historic Weather in Arctic Bay — Graph

°F

Arctic Bay temperature yesterday

Maximum temperature yesterday: 54 °F (at 11:00 AM)
Minimum temperature yesterday: 39 °F (at 12:00 AM)
Average temperature yesterday: 44 °F

Past Weeks' High & Low Weather Summary

 TemperatureHumidityPressure
High54 °F (Aug 19, 11:00 AM)100% (Aug 7, 5:00 PM)30.05 "Hg (Aug 7, 5:00 PM)
Low32 °F (Aug 13, 2:00 AM)46% (Aug 18, 11:00 AM)29.39 "Hg (Aug 12, 9:00 PM)
Average40 °F81%29.71 "Hg
* Reported Aug 5 3:00 PM — Aug 20 3:00 PM, Arctic Bay, Weather by CustomWeather, © 2014

Note: Actual official high and low records may vary slightly from our data, if they occured in-between our weather recording intervals... More about our weather records

Advertising

Arctic Bay weather history for previous 24 hours

 ConditionsComfort  
Time TempWeatherWind HumidityBarometerVisibility
3:00 PM
Aug 20
39 °FPartly sunny.12 mph81%30.05 "Hg20 mi
2:00 PM43 °FCloudy.20 mph66%30.03 "Hg25 mi
1:00 PM41 °FMostly cloudy.10 mph81%30.00 "Hg20 mi
12:00 PM43 °FMostly cloudy.16 mph71%29.98 "Hg20 mi
11:00 AM41 °FMostly cloudy.24 mph70%29.95 "Hg20 mi
10:00 AM41 °FQuite cool.12 mph81%29.92 "Hg20 mi
9:00 AM39 °FMostly cloudy.6 mph87%29.90 "Hg9 mi
8:00 AM41 °FOvercast.10 mph81%29.87 "Hg9 mi
7:00 AM41 °FOvercast.14 mph76%29.84 "Hg9 mi
6:00 AM41 °FOvercast.14 mph76%29.80 "Hg9 mi
5:00 AM41 °FMostly cloudy.13 mph70%29.78 "Hg9 mi
4:00 AM41 °FOvercast.10 mph76%29.76 "Hg9 mi
3:00 AM41 °FOvercast.8 mph76%29.74 "Hg9 mi
2:00 AM43 °FOvercast.13 mph66%29.71 "Hg9 mi
1:00 AM43 °FMostly cloudy.15 mph71%29.68 "Hg9 mi
12:00 AM43 °FOvercast.14 mph71%29.66 "Hg9 mi
11:00 PM
Aug 19
43 °FMostly cloudy.12 mph71%29.65 "Hg9 mi
10:00 PM45 °FOvercast.18 mph66%29.64 "Hg9 mi
9:00 PM45 °FOvercast.9 mph71%29.62 "Hg9 mi
8:00 PM45 °FMostly cloudy.3 mph71%29.61 "Hg9 mi
7:00 PM45 °FMostly cloudy.3 mph66%29.60 "Hg9 mi
6:00 PM46 °FPartly sunny.10 mph66%29.58 "Hg25 mi
5:00 PM45 °FBroken clouds.5 mph71%29.58 "Hg25 mi
4:00 PM43 °FMostly cloudy.2 mph76%29.57 "Hg25 mi
Weather by CustomWeather, © 2014

See weather overviewHow to use our weather pages